Temp
15 14 13 14 15 14 14 14 15 15 15 15 15 15 15 15 15 15 16 15 14 15 15 15 15 14 14 13 13 13 14 14 13 13 13 13 12 12 12 11 11 11 11
13 13 14 13 14 14 14 14 14 14 15 15 15 15 15 15 15 15 15 15 15 14 14 14 15 14 14 14 13 13 13 13 13 13 13 12 12 12 12 12 11 11 10
13 13 13 14 15 13 13 13 13 13 14 14 15 15 15 15 15 15 15 15 15 14 14 14 14 14 14 14 13 13 13 13 13 13 13 12 12 12 11 12 11 11 10
13 14 13 13 13 14 14 15 14 12 12 14 14 15 15 15 15 15 15 14 15 15 14 14 14 14 14 14 13 13 13 13 13 13 13 13 12 12 11 11 11 11 10
13 13 14 14 13 12 13 14 15 15 13 11 13 14 14 14 14 15 15 15 14 15 14 14 15 14 14 14 14 13 13 13 13 13 12 12 12 12 12 11 11 11 10
13 13 14 14 13 13 12 13 14 13 14 13 12 12 13 14 14 14 15 15 15 15 15 14 14 14 14 14 14 14 13 13 13 12 12 12 12 11 11 12 11 10 10
11 11 12 12 13 12 11 12 13 14 14 13 11 12 12 14 14 14 14 14 14 15 15 15 14 14 14 14 14 14 13 13 13 13 13 12 12 11 11 11 11 10 10
9 10 10 11 11 11 11 10 12 12 12 12 11 11 12 13 14 14 14 15 15 14 15 15 15 14 14 14 14 14 13 13 13 13 13 12 12 12 11 11 11 10 10
7 7 8 9 9 10 11 10 10 11 9 11 10 11 12 13 14 14 14 15 15 14 15 14 15 14 14 14 14 13 13 13 13 13 13 13 12 12 12 11 11 10 10
4 5 6 6 7 7 9 10 9 9 9 10 10 10 11 13 13 14 13 14 15 15 14 15 14 14 14 13 13 14 14 13 13 13 13 12 12 12 11 11 11 10 10
0 -0 2 4 3 4 5 8 9 8 9 9 10 10 10 12 12 12 11 12 12 14 14 15 15 15 14 14 14 14 14 13 13 13 13 12 12 12 11 11 11 10 10
-3 -3 -2 -0 0 1 3 5 7 7 7 8 9 10 10 10 10 10 10 11 11 11 12 14 14 14 14 14 15 14 15 14 15 14 13 12 12 12 12 12 11 10 10
-4 -3 -3 -2 -1 0 0 2 4 4 6 6 8 9 10 10 10 10 11 10 10 11 11 13 14 14 14 14 14 14 14 14 14 14 14 13 13 12 12 12 11 10 10
-5 -4 -3 -3 -2 -1 -0 -0 0 1 2 5 7 8 9 10 10 10 10 10 10 10 10 11 12 13 13 13 14 14 13 14 14 14 14 14 14 13 13 12 12 11 10
-5 -5 -4 -3 -2 -1 -1 -0 -0 0 2 4 5 7 8 9 10 10 10 10 10 10 10 11 11 12 12 13 15 15 13 14 14 14 14 14 14 13 13 13 12 12 10
-6 -5 -4 -3 -2 -1 -0 1 0 1 2 2 5 6 7 9 9 10 10 10 11 10 10 10 11 12 12 12 14 15 14 14 14 14 14 14 14 13 14 13 13 13 12
-6 -6 -5 -4 -2 -1 0 1 1 1 2 3 4 5 6 8 8 9 10 10 10 11 10 10 10 11 11 12 15 14 12 13 14 14 14 15 14 14 13 13 13 13 12
-7 -6 -6 -4 -3 -2 -0 1 2 2 3 3 4 4 5 7 6 7 8 10 10 10 10 11 10 11 12 13 12 11 11 14 13 14 14 14 14 14 13 13 13 13 12
-7 -7 -7 -5 -4 -3 -2 -1 0 2 2 2 3 4 5 6 6 7 8 8 9 9 10 10 10 10 10 10 10 10 11 14 12 13 13 14 14 14 13 13 13 13 12
-5 -6 -5 -6 -5 -4 -3 -2 -2 -1 -0 0 1 2 3 4 5 7 7 8 8 8 9 9 9 9 10 10 10 10 10 11 11 12 12 14 14 14 13 13 13 13 12
-5 -5 -5 -4 -4 -4 -3 -3 -2 -2 -2 -1 -1 -1 -1 -0 2 4 5 6 7 7 8 8 9 9 9 9 9 9 10 10 10 10 11 13 13 14 14 13 13 13 12
-4 -4 -4 -4 -4 -5 -4 -3 -2 -2 -2 -2 -2 -2 -2 -2 -1 -0 0 3 4 6 6 6 6 7 7 7 8 8 9 9 9 9 9 10 13 12 11 12 13 13 12
-4 -4 -4 -5 -5 -5 -5 -4 -3 -2 -2 -4 -4 -3 -3 -3 -2 -2 -1 -0 1 2 2 1 2 2 4 3 6 6 7 6 8 8 8 8 9 9 10 10 10 11 11
-6 -6 -6 -6 -6 -7 -6 -5 -5 -4 -4 -3 -4 -4 -3 -4 -4 -3 -2 -1 -1 -1 -2 -3 -4 -4 -3 -1 1 2 3 3 5 2 5 8 8 9 9 8 9 9 9
-6 -6 -6 -7 -6 -7 -7 -6 -4 -4 -4 -5 -4 -4 -4 -4 -4 -3 -2 -3 -3 -4 -4 -4 -4 -3 -3 -2 -1 -1 -0 0 1 1 1 3 3 3 3 5 4 8 7
-7 -7 -6 -7 -7 -7 -7 -6 -6 -6 -5 -5 -5 -6 -6 -6 -5 -4 -3 -4 -3 -5 -4 -3 -3 -3 -3 -2 -2 -2 -4 -3 -3 -2 -2 -1 -1 -0 1 1 1 2 3
Height
1509 1509 1509 1508 1509 1511 1511 1514 1516 1518 1520 1521 1523 1522 1522 1523 1525 1526 1527 1529 1533 1535 1536 1537 1538 1540 1544 1546 1548 1551 1553 1554 1556 1557 1558 1560 1561 1562 1563 1564 1565 1566 1568
1504 1502 1503 1504 1505 1507 1507 1509 1511 1514 1516 1516 1518 1519 1519 1519 1520 1522 1524 1525 1528 1531 1533 1535 1535 1536 1539 1541 1543 1546 1548 1550 1553 1554 1555 1557 1558 1559 1560 1561 1562 1563 1564
1501 1499 1498 1498 1500 1498 1503 1503 1503 1504 1506 1510 1511 1513 1514 1514 1514 1517 1519 1520 1522 1525 1528 1530 1531 1532 1534 1537 1539 1542 1543 1545 1547 1549 1551 1553 1554 1555 1557 1558 1559 1560 1561
1496 1495 1494 1494 1495 1494 1497 1496 1494 1486 1494 1499 1503 1506 1508 1510 1510 1510 1514 1515 1516 1519 1523 1525 1527 1529 1530 1532 1535 1538 1540 1542 1543 1544 1545 1547 1549 1551 1552 1554 1555 1556 1558
1490 1489 1488 1488 1486 1486 1489 1487 1484 1480 1485 1482 1494 1497 1501 1502 1505 1504 1506 1508 1510 1512 1515 1520 1522 1524 1526 1527 1529 1532 1535 1537 1539 1540 1542 1544 1544 1546 1547 1549 1551 1552 1554
1482 1481 1480 1479 1479 1478 1479 1479 1479 1480 1482 1481 1485 1490 1493 1493 1495 1497 1498 1501 1504 1506 1509 1513 1517 1518 1521 1523 1524 1525 1528 1531 1533 1536 1537 1539 1541 1541 1543 1544 1546 1548 1549
1472 1472 1470 1470 1470 1469 1470 1472 1473 1473 1473 1474 1479 1484 1485 1485 1483 1486 1489 1492 1495 1499 1502 1505 1510 1512 1514 1517 1518 1519 1521 1523 1526 1528 1531 1533 1535 1536 1537 1539 1540 1543 1544
1462 1461 1460 1459 1459 1458 1459 1463 1465 1466 1467 1469 1471 1477 1476 1473 1471 1475 1479 1481 1486 1491 1493 1497 1501 1504 1507 1509 1511 1513 1515 1517 1519 1522 1524 1527 1529 1530 1530 1532 1535 1537 1539
1452 1450 1449 1448 1448 1447 1448 1450 1454 1456 1457 1460 1460 1463 1465 1459 1464 1462 1470 1472 1476 1481 1484 1489 1493 1496 1499 1501 1504 1506 1508 1511 1513 1516 1518 1520 1522 1524 1525 1526 1529 1531 1533
1442 1441 1439 1438 1437 1437 1436 1438 1440 1444 1448 1449 1451 1448 1452 1452 1452 1455 1464 1464 1466 1471 1475 1478 1483 1486 1491 1493 1496 1498 1500 1503 1506 1509 1511 1514 1516 1518 1519 1522 1523 1525 1527
1433 1430 1429 1428 1427 1427 1426 1426 1426 1428 1433 1438 1440 1442 1440 1441 1446 1447 1452 1458 1458 1462 1468 1469 1473 1477 1481 1485 1488 1490 1493 1495 1499 1503 1505 1507 1508 1510 1512 1514 1516 1518 1520
1426 1424 1421 1420 1417 1416 1415 1415 1415 1415 1420 1424 1429 1429 1429 1432 1433 1438 1445 1451 1457 1457 1459 1461 1463 1467 1472 1476 1478 1481 1484 1487 1490 1493 1496 1499 1501 1502 1505 1507 1509 1511 1513
1421 1418 1415 1412 1409 1408 1407 1406 1405 1404 1407 1410 1414 1417 1419 1421 1428 1432 1438 1440 1447 1450 1454 1455 1456 1459 1463 1467 1469 1470 1473 1476 1480 1484 1487 1490 1493 1495 1497 1499 1501 1503 1506
1416 1412 1408 1405 1402 1400 1398 1398 1396 1397 1399 1401 1404 1408 1413 1415 1419 1426 1430 1435 1436 1445 1447 1447 1449 1451 1454 1456 1458 1460 1462 1465 1469 1473 1477 1481 1483 1485 1488 1491 1492 1495 1498
1414 1408 1403 1398 1395 1392 1391 1390 1390 1391 1392 1394 1398 1400 1405 1406 1412 1415 1421 1424 1429 1432 1434 1437 1439 1443 1448 1450 1447 1449 1451 1455 1457 1460 1464 1470 1474 1476 1478 1481 1484 1486 1489
1412 1406 1400 1394 1390 1388 1386 1383 1385 1387 1389 1390 1392 1396 1399 1404 1404 1405 1412 1416 1418 1421 1426 1423 1429 1435 1438 1434 1436 1440 1442 1447 1448 1449 1451 1456 1462 1467 1469 1472 1475 1477 1480
1412 1406 1399 1393 1389 1387 1384 1383 1383 1384 1387 1389 1391 1390 1394 1398 1400 1402 1405 1406 1409 1413 1411 1419 1423 1424 1427 1428 1425 1428 1432 1438 1440 1441 1443 1447 1452 1455 1459 1462 1464 1467 1470
1414 1406 1400 1395 1390 1386 1383 1382 1382 1382 1383 1384 1384 1385 1386 1389 1394 1397 1399 1400 1400 1401 1409 1407 1412 1412 1416 1421 1423 1425 1427 1429 1431 1433 1437 1440 1443 1446 1449 1452 1454 1456 1460
1416 1410 1403 1397 1392 1389 1386 1384 1383 1381 1381 1382 1383 1383 1383 1385 1390 1392 1392 1394 1395 1399 1401 1405 1407 1408 1410 1415 1416 1418 1420 1417 1423 1425 1430 1432 1434 1435 1438 1441 1445 1447 1450
1420 1414 1408 1403 1398 1394 1391 1389 1388 1386 1385 1384 1383 1382 1383 1385 1386 1388 1390 1392 1394 1394 1398 1399 1401 1402 1404 1407 1411 1410 1407 1407 1411 1418 1421 1422 1425 1426 1428 1431 1433 1437 1441
1429 1422 1416 1410 1406 1401 1399 1396 1394 1392 1391 1389 1387 1386 1386 1387 1386 1386 1387 1389 1389 1390 1391 1394 1394 1396 1400 1400 1401 1400 1400 1403 1407 1409 1411 1413 1415 1415 1417 1420 1422 1426 1430
1436 1430 1424 1420 1416 1412 1411 1408 1403 1398 1396 1394 1393 1394 1394 1392 1390 1389 1389 1386 1385 1385 1387 1388 1389 1390 1392 1391 1389 1393 1394 1398 1402 1402 1402 1402 1403 1404 1407 1408 1411 1414 1418
1443 1437 1432 1429 1425 1424 1422 1418 1414 1409 1405 1402 1402 1400 1399 1397 1396 1394 1392 1389 1387 1386 1385 1386 1386 1388 1388 1386 1388 1388 1390 1391 1391 1391 1392 1394 1394 1395 1396 1400 1403 1406 1409
1450 1445 1441 1437 1435 1432 1431 1427 1422 1418 1415 1412 1410 1406 1402 1401 1400 1399 1395 1392 1392 1391 1391 1393 1393 1392 1388 1386 1384 1386 1386 1387 1385 1390 1381 1382 1380 1382 1388 1390 1390 1396 1400
1457 1453 1449 1445 1441 1439 1437 1434 1429 1426 1422 1418 1415 1414 1412 1408 1406 1402 1399 1398 1398 1397 1400 1400 1397 1396 1395 1392 1388 1386 1385 1386 1382 1385 1383 1377 1380 1376 1381 1376 1382 1382 1383
1462 1459 1455 1451 1449 1445 1442 1438 1435 1430 1426 1422 1420 1416 1414 1412 1410 1407 1405 1404 1402 1402 1402 1402 1400 1400 1397 1394 1390 1388 1386 1387 1382 1383 1380 1379 1377 1375 1379 1373 1374 1379 1374
Wind_Speed
18 22 23 26 28 29 31 31 30 30 30 28 27 28 26 25 24 24 24 23 20 21 19 18 19 21 22 22 22 21 19 18 17 16 14 14 13 13 13 13 15 15 16
17 17 17 24 23 26 27 28 32 33 33 31 30 30 28 28 26 27 26 26 25 23 23 22 21 21 22 24 25 24 22 20 20 18 16 15 14 14 12 12 13 15 18
16 17 17 15 24 25 26 23 25 32 35 35 34 32 31 30 29 28 28 28 28 28 27 26 24 23 23 25 25 26 25 24 23 21 20 17 16 16 14 13 13 13 17
21 22 22 18 21 19 28 27 39 30 25 36 36 35 33 31 30 30 31 31 31 31 30 28 28 26 25 25 25 27 27 26 25 24 24 20 19 18 17 16 14 13 16
26 26 26 26 25 24 23 23 23 32 35 33 38 34 34 33 32 31 33 34 34 33 34 31 29 30 28 26 26 27 28 29 28 26 26 24 22 20 20 19 17 17 16
27 29 30 30 28 28 25 24 25 25 22 48 33 28 29 32 33 34 34 36 37 36 36 36 32 32 31 29 27 28 29 30 28 29 28 29 26 23 23 22 21 20 18
31 31 32 32 33 32 29 26 27 27 23 26 29 37 34 31 33 34 35 38 40 40 40 38 36 35 34 33 30 29 30 30 29 28 29 30 29 27 26 25 24 22 20
34 34 34 34 34 35 34 28 28 29 31 34 36 37 28 31 35 37 39 39 42 42 41 40 39 40 37 35 35 32 32 32 30 30 29 28 28 26 26 27 28 24 25
33 34 34 35 34 36 36 34 31 33 33 36 39 40 22 30 22 24 34 42 45 45 46 44 42 42 41 39 37 36 34 33 33 32 31 31 31 30 26 27 28 27 27
33 31 32 33 34 35 37 38 35 35 36 36 35 44 51 31 20 34 37 36 40 47 50 47 48 46 44 42 40 39 38 36 34 33 33 32 32 31 30 28 28 29 26
30 31 28 28 29 30 34 37 40 36 37 41 34 38 39 50 50 32 15 28 25 44 49 46 49 47 46 43 42 42 40 38 38 36 34 32 32 32 31 30 28 30 27
28 27 26 24 27 28 29 34 38 40 37 39 43 33 42 39 40 39 44 27 28 20 30 45 46 47 45 43 42 42 42 41 38 35 35 35 34 32 32 32 30 31 29
26 27 25 26 26 27 30 31 36 39 38 38 42 43 35 44 38 36 41 49 45 36 29 30 34 36 36 38 33 32 45 44 39 38 37 37 37 36 33 32 32 32 32
24 25 25 24 25 27 28 29 33 34 34 38 41 39 37 37 45 48 41 34 33 47 39 38 33 37 33 31 28 24 24 26 38 42 39 39 40 38 37 35 35 34 34
21 21 20 21 22 24 23 27 26 26 28 31 38 41 37 28 38 43 39 40 39 30 38 45 41 37 36 43 41 37 37 32 30 36 43 40 41 39 38 39 38 36 36
19 17 16 14 13 12 13 13 17 17 18 23 31 40 36 35 28 26 48 51 49 45 31 31 39 41 44 59 61 58 51 46 34 29 37 40 40 40 38 37 40 38 37
20 20 18 14 8 4 2 1 4 10 5 8 13 21 27 34 35 33 35 35 39 43 58 55 33 33 48 47 54 58 54 46 33 25 25 34 38 39 38 38 37 37 36
25 25 25 20 16 12 8 2 3 5 9 12 11 14 17 25 23 25 30 32 34 32 36 33 37 38 33 51 56 47 38 40 26 24 26 28 34 38 39 40 40 38 37
33 33 33 31 27 24 20 17 13 10 6 5 3 4 7 16 20 22 22 23 20 25 27 28 31 30 30 37 38 39 43 36 39 28 29 32 36 38 41 41 41 40 38
38 40 40 39 36 32 29 27 23 21 20 17 14 11 8 2 9 16 21 23 22 19 22 26 25 25 23 24 29 27 34 34 34 37 43 32 32 34 41 44 44 43 42
35 38 39 41 41 40 36 32 32 30 29 26 26 25 22 17 10 3 12 15 14 16 16 14 18 22 23 22 30 29 29 28 35 41 44 47 33 36 39 44 46 44 44
33 34 37 38 39 40 36 35 33 34 34 34 32 30 28 25 23 19 16 9 8 5 10 8 6 8 12 13 18 21 31 37 33 35 37 39 39 33 37 39 40 41 44
32 35 37 39 39 36 33 32 33 33 33 36 35 34 33 32 29 26 24 20 15 9 7 9 7 5 9 13 20 20 21 23 23 25 28 27 29 29 30 34 37 38 39
34 35 38 37 38 38 35 34 34 34 34 33 33 33 32 31 30 27 24 25 25 23 22 20 17 15 13 10 9 12 15 17 22 20 16 23 25 29 36 35 37 36 38
32 34 34 36 37 38 36 34 33 34 35 36 35 35 33 31 28 25 22 25 25 25 22 19 16 14 13 9 9 4 5 5 7 12 11 8 14 18 19 23 24 34 37
32 33 34 35 36 36 35 34 34 34 35 34 34 36 36 34 31 28 26 25 22 24 18 15 14 14 14 14 14 14 17 14 7 4 12 6 5 5 6 8 12 17 17
Wind_Direction
268 268 262 252 250 250 249 249 245 246 245 243 241 239 237 238 239 238 235 230 231 227 226 224 222 222 223 221 221 223 225 222 220 218 217 219 223 228 233 234 226 223 216
274 268 267 270 263 262 261 261 258 252 251 248 245 245 241 241 240 242 239 235 231 233 230 231 228 226 226 225 223 224 225 226 225 224 224 227 230 232 232 232 230 230 213
274 275 257 262 280 272 261 259 262 261 253 249 249 246 245 242 242 243 242 239 235 235 235 234 233 230 229 231 227 228 225 225 226 227 226 233 239 236 236 237 238 237 216
271 273 275 261 245 254 269 286 261 273 261 254 247 249 249 247 246 246 247 243 237 234 236 236 234 234 233 233 232 231 230 231 230 230 230 235 239 238 238 241 245 245 232
272 271 271 272 271 266 264 277 274 289 266 276 248 249 252 251 249 248 249 249 244 237 235 239 238 236 234 233 232 229 231 233 233 234 237 239 239 241 240 244 247 247 240
266 265 265 267 267 266 265 266 269 263 278 251 258 259 255 257 256 250 249 250 249 243 239 239 242 237 235 236 234 231 229 234 236 239 240 241 243 243 239 243 249 244 249
275 270 266 265 266 268 262 255 261 263 255 228 229 255 259 256 258 257 246 248 249 247 243 240 238 238 238 238 238 235 233 232 236 242 245 245 246 247 242 242 248 246 250
281 278 276 271 267 266 267 256 250 250 249 240 227 224 239 250 257 261 253 243 244 245 243 241 237 238 240 240 238 239 238 235 236 242 245 247 247 248 244 241 244 249 248
284 281 276 274 270 266 262 260 247 241 242 249 241 228 232 238 237 257 264 248 244 242 241 241 241 240 241 241 242 242 241 242 241 242 245 247 250 250 252 247 246 246 248
293 283 278 274 269 264 261 256 254 240 234 239 244 239 240 240 224 230 256 256 244 240 241 240 242 241 241 243 244 246 246 245 246 246 249 250 250 250 253 253 250 249 249
299 296 287 275 270 265 259 254 251 246 234 232 239 239 244 236 230 237 252 252 256 242 240 241 241 242 243 246 248 251 250 248 248 247 248 249 249 250 250 254 254 252 253
301 301 300 286 282 277 268 258 253 253 245 235 232 240 235 232 228 223 229 232 247 252 251 239 239 240 243 247 250 254 256 255 251 250 246 245 246 248 247 250 253 251 252
308 302 294 291 287 283 281 267 254 253 242 235 231 234 244 233 228 220 229 228 244 254 261 255 247 243 243 247 247 252 256 256 255 254 249 246 244 245 248 248 250 251 251
312 305 296 286 275 275 274 270 266 257 252 242 233 234 241 240 232 232 228 219 220 235 250 250 246 239 236 236 237 249 266 268 259 251 252 250 248 245 246 247 245 246 248
328 318 310 295 285 277 274 267 265 269 257 250 237 235 242 243 238 235 236 235 230 239 241 238 238 243 249 248 251 255 267 272 277 254 245 248 248 247 247 245 244 245 246
4 348 337 324 303 284 298 275 260 262 257 252 244 238 246 240 247 246 244 244 250 239 246 237 246 253 254 266 257 253 256 269 270 264 242 240 243 245 246 244 244 243 244
29 23 19 15 10 339 294 274 268 263 280 289 273 257 250 248 253 250 252 244 251 248 246 249 242 238 249 241 236 247 256 256 261 261 252 239 241 241 244 242 242 241 244
45 47 43 45 49 54 59 103 152 123 201 237 250 253 245 240 249 253 254 256 249 243 244 235 240 245 242 229 248 257 243 239 251 260 253 245 241 241 240 241 241 239 240
56 54 55 54 57 59 62 66 78 94 108 109 120 227 243 237 245 247 246 252 247 252 253 247 250 252 253 242 247 253 240 240 251 258 266 260 245 241 240 241 241 240 240
61 59 58 57 59 63 64 66 68 74 77 79 80 80 70 48 234 239 248 251 243 226 234 242 254 251 242 254 250 251 248 253 264 267 263 267 254 243 238 240 239 238 238
56 59 60 61 60 58 59 66 68 67 69 69 69 67 66 66 65 271 249 251 247 241 230 237 237 250 258 262 265 264 264 263 275 274 268 261 260 249 244 238 240 240 239
58 58 60 58 57 60 61 59 61 70 68 66 63 63 65 63 59 54 47 3 322 277 253 272 253 248 259 270 254 254 255 264 253 255 256 256 255 260 251 245 240 239 238
59 61 62 62 60 57 57 58 62 64 61 64 64 66 62 58 54 52 48 54 55 52 46 38 25 346 286 295 273 271 270 260 254 243 246 234 236 241 249 242 239 238 237
59 59 61 62 62 59 56 57 58 60 61 63 61 55 55 54 51 49 49 49 49 49 48 47 47 40 26 355 303 285 278 269 255 273 253 240 238 237 228 227 233 233 238
61 60 58 59 57 57 55 53 56 57 57 56 55 55 52 49 45 44 45 56 57 54 48 46 45 37 21 24 21 6 310 278 247 258 271 247 242 218 229 215 221 221 218
59 58 58 55 55 50 48 50 49 51 51 51 50 48 45 40 37 38 40 45 45 43 38 35 35 34 41 28 29 34 35 29 22 307 358 328 269 294 260 232 243 254 243